Wind_Speed
6 3 6 11 7 1 12 12 10 5 5 1 6 2 17 16 12 12 12 12 14 13 20 23 28 29 29 33 33 30 27 24 20 21 17 12 9 10 7 6 11 13 11 8
1 8 14 10 7 5 6 8 1 3 2 3 2 10 14 15 18 15 10 10 13 14 8 16 23 26 30 35 36 32 27 23 23 24 19 12 8 12 8 7 9 11 10 8
7 11 5 10 6 6 4 7 9 4 5 2 0 6 6 7 8 11 10 14 12 16 12 11 21 27 28 28 35 35 29 26 21 21 17 11 7 8 9 9 7 8 9 8
5 9 10 9 4 6 6 12 12 11 8 4 5 4 7 12 8 9 15 14 15 14 13 12 17 21 26 31 33 34 31 28 23 19 17 16 12 8 7 9 7 5 3 3
8 5 5 4 6 13 10 9 5 7 4 3 2 1 6 7 16 19 15 16 18 17 16 17 21 26 31 27 32 35 32 29 27 22 17 16 11 8 9 7 5 5 5 3
7 4 3 7 4 19 8 11 9 4 3 3 8 6 6 6 26 21 12 18 19 19 18 19 26 24 23 25 28 33 30 27 29 24 17 13 12 13 12 8 8 5 8 10
5 4 4 4 2 6 9 8 3 2 1 6 2 7 12 5 6 24 18 14 17 17 17 15 14 19 19 22 23 27 28 26 26 22 18 14 12 14 10 9 10 12 11 9
4 9 6 5 6 8 13 9 6 7 5 3 5 6 5 10 4 7 7 4 11 15 13 13 14 18 18 21 23 25 27 24 18 15 14 13 11 12 14 11 12 15 12 9
6 7 3 4 4 8 4 6 6 7 2 3 4 5 3 13 13 14 13 14 11 9 9 8 10 16 20 22 25 27 28 19 14 14 17 17 18 19 20 16 12 11 9 6
3 4 5 3 2 1 7 5 2 3 4 4 5 4 4 3 8 11 12 12 11 12 11 9 12 16 16 19 21 25 25 24 22 22 21 21 20 19 16 13 11 8 8 6
4 7 10 3 4 7 0 2 5 5 4 6 3 5 4 7 10 11 10 11 12 12 12 11 11 20 23 24 23 26 24 24 23 21 20 18 15 12 9 7 8 7 7 8
2 4 7 14 4 5 2 2 6 5 4 1 3 4 6 8 12 13 11 12 11 12 9 9 16 11 16 23 24 23 21 21 18 15 13 12 10 8 6 4 8 9 9 10
4 0 2 7 6 5 5 3 4 4 3 6 6 4 7 9 11 10 15 12 11 14 13 9 3 2 12 19 20 18 17 15 13 11 10 10 9 8 8 8 7 9 10 12
7 3 5 6 4 2 3 6 3 4 4 5 5 8 12 13 10 7 7 8 8 5 13 10 6 7 11 14 16 16 15 14 14 10 6 7 8 8 8 6 5 6 6 6
4 3 3 4 9 8 6 6 7 3 1 4 6 7 14 14 13 10 8 9 9 8 8 8 5 5 9 11 12 12 9 7 7 9 10 9 8 8 8 5 4 1 2 4
2 3 4 6 5 12 7 11 6 4 5 5 7 4 8 5 7 8 9 8 8 10 7 6 7 10 10 9 8 8 10 10 8 9 11 11 10 6 4 3 2 4 6 8
3 4 3 5 2 3 7 8 8 2 4 5 4 5 7 7 9 10 9 9 7 6 6 6 6 8 7 8 9 8 7 8 8 8 7 7 7 5 3 4 7 8 11 14
3 3 3 3 1 3 7 3 3 6 4 6 10 7 7 8 3 6 5 4 5 6 6 6 11 12 11 10 10 9 8 7 6 5 6 6 6 6 6 9 11 13 14 17
3 5 4 4 3 3 4 6 3 2 2 6 11 9 6 7 4 1 4 5 5 6 12 17 15 11 10 12 11 9 6 4 3 2 4 5 7 8 10 12 14 16 17 19
5 7 4 3 5 7 8 5 3 1 4 10 6 11 13 11 5 4 11 6 7 15 18 18 16 17 15 15 13 10 8 7 7 7 7 7 9 12 14 16 18 20 21 22
4 4 3 1 2 4 4 4 5 5 7 5 8 12 14 7 4 3 9 7 16 16 18 18 21 20 18 16 13 11 7 8 6 7 9 11 13 15 16 18 20 22 23 25
3 4 1 2 3 3 3 5 6 6 1 4 5 6 10 4 3 5 9 9 15 17 20 23 19 17 16 14 15 14 13 11 8 10 12 14 14 16 18 20 22 21 22 22
1 5 4 6 5 4 4 3 2 4 4 1 6 6 9 8 6 7 7 9 16 23 22 20 20 17 13 14 17 20 21 17 14 14 13 12 14 17 19 19 21 21 21 23
2 2 2 2 2 2 3 2 2 3 4 4 3 5 7 7 7 6 7 8 14 19 20 20 16 13 13 13 14 20 20 17 14 13 13 14 17 19 20 20 19 20 23 24
4 3 4 2 3 3 4 3 3 5 7 7 6 6 8 8 7 7 7 9 18 22 18 17 15 14 12 8 9 10 11 12 13 13 16 18 20 22 24 24 24 22 24 25
5 6 4 5 8 6 6 5 2 6 4 5 6 4 3 8 9 12 9 19 23 20 15 14 12 11 11 10 11 10 11 12 14 17 19 19 21 23 24 24 26 25 27 26
Wind_Direction
186 153 198 225 189 8 148 168 150 205 190 181 192 281 193 196 200 209 213 212 210 195 195 189 187 192 193 197 194 191 192 194 192 186 181 177 156 176 194 207 206 217 236 233
129 239 231 214 128 115 129 141 109 266 3 110 234 252 212 201 212 208 189 195 196 197 157 174 181 186 192 196 199 198 202 197 191 185 185 190 182 188 174 157 176 208 222 229
189 246 253 176 156 146 150 194 181 185 122 37 346 308 200 225 228 229 207 196 193 188 192 169 177 187 194 198 198 201 203 199 197 195 189 179 182 168 177 179 198 218 230 250
226 270 263 155 173 138 176 208 189 145 142 214 159 258 244 218 235 231 221 197 196 200 197 191 180 184 194 202 204 206 207 204 200 197 201 199 201 199 190 182 180 173 165 217
241 306 311 148 204 171 228 168 151 150 64 342 275 57 261 207 227 231 214 196 197 199 192 192 196 189 197 196 200 207 209 206 208 203 207 207 217 224 179 181 196 147 132 105
250 270 226 223 182 185 75 100 43 52 31 295 199 169 266 191 218 229 209 205 188 193 195 197 196 190 192 193 197 205 207 211 208 204 205 210 212 202 198 178 177 139 110 95
295 216 255 224 152 73 101 104 63 23 248 236 217 161 248 241 254 219 194 200 192 191 188 195 184 186 185 185 191 195 197 192 197 203 203 198 195 198 201 177 158 131 111 104
178 314 183 169 172 168 172 170 161 195 204 225 92 228 278 320 346 97 80 98 188 192 187 193 183 181 188 177 184 179 184 177 181 183 178 180 181 164 142 135 142 132 114 94
155 268 275 213 210 142 204 183 194 116 50 105 206 278 62 43 38 56 65 73 62 62 83 91 95 150 166 167 171 174 166 148 139 135 133 130 133 130 126 122 116 110 108 91
275 295 210 280 155 124 150 170 77 5 164 243 299 276 199 53 95 89 77 75 63 49 44 59 85 84 92 113 127 142 137 126 118 116 119 121 123 122 120 116 97 80 75 62
149 146 277 12 199 194 17 280 42 119 133 166 187 253 345 162 136 109 83 75 69 59 44 22 35 94 89 86 93 108 113 116 115 115 118 118 109 109 113 118 117 96 67 56
201 170 211 229 273 304 178 229 146 126 251 120 157 267 98 134 138 115 115 113 102 100 95 63 347 56 88 115 116 111 120 127 129 129 124 116 119 117 93 58 106 98 85 79
188 351 13 351 352 357 68 339 124 117 76 186 144 256 133 149 141 146 144 149 159 145 130 99 25 22 97 109 120 123 131 133 133 128 122 116 114 112 122 130 102 97 86 71
92 101 150 187 224 207 5 329 103 132 122 177 214 166 173 166 163 172 146 141 155 118 108 112 166 200 138 132 132 134 137 139 137 137 133 134 131 127 130 123 96 99 89 63
102 110 107 57 108 87 59 2 4 95 22 152 224 167 176 175 173 178 160 140 134 128 136 161 164 161 151 146 140 140 144 147 137 134 132 138 135 137 139 144 131 149 29 345
29 160 129 49 84 74 61 21 18 37 89 58 75 79 151 117 132 159 169 170 168 167 160 146 169 176 169 168 162 145 140 142 150 154 151 151 151 154 168 192 238 274 303 308
87 121 83 181 298 50 30 342 342 125 64 146 190 169 139 136 165 184 187 197 190 160 154 166 173 178 176 172 154 146 146 152 158 165 169 180 171 190 219 289 300 317 318 313
119 83 68 146 83 75 232 296 284 74 76 94 96 134 145 136 145 170 200 207 193 172 159 164 176 178 178 184 184 167 166 169 171 182 201 216 226 256 288 304 314 306 304 307
40 118 67 117 77 344 323 265 183 104 291 190 148 150 120 111 86 290 207 193 186 179 179 180 177 173 171 176 180 172 164 183 204 237 281 288 287 275 291 297 302 308 312 313
53 68 107 119 126 188 226 221 194 81 280 201 192 161 143 145 142 239 172 177 160 189 177 172 182 180 181 172 171 182 199 209 233 250 267 280 279 277 289 301 306 309 311 309
3 5 98 81 162 281 250 186 109 107 237 164 155 157 158 187 185 201 140 155 193 191 187 189 184 186 190 187 196 201 210 239 271 264 274 282 289 288 297 303 309 310 310 309
152 125 166 87 68 271 185 93 162 213 350 136 117 156 175 121 177 159 162 161 171 175 186 185 186 198 198 206 215 220 224 248 250 260 274 281 285 289 294 298 302 304 307 309
226 176 183 166 215 257 277 233 194 137 124 144 129 146 155 159 179 161 173 164 164 172 177 188 198 204 211 223 228 225 237 246 252 261 264 276 286 292 299 299 301 301 304 306
247 156 122 74 231 262 21 16 83 131 138 121 97 132 156 161 146 156 141 151 160 175 185 193 195 204 223 232 240 243 250 262 253 249 266 276 288 297 302 303 301 296 296 299
206 127 149 300 347 69 3 12 123 101 107 121 142 157 171 146 164 162 167 177 180 181 187 192 200 212 234 243 238 241 238 239 250 261 272 281 289 296 302 304 301 299 301 302
185 179 161 214 206 156 187 178 130 113 110 140 147 129 176 180 174 172 190 190 184 189 192 198 208 219 218 229 249 255 253 256 256 265 277 289 296 301 303 303 306 312 314 311
Height
785 803 814 792 797 793 797 809 816 809 795 803 804 810 805 800 804 807 804 804 802 804 806 810 813 817 821 826 830 832 835 837 839 841 843 845 846 848 849 848 848 851 852 852
795 808 782 782 793 798 802 813 818 808 801 807 813 813 803 801 797 795 800 803 801 801 806 810 813 816 819 821 825 829 832 835 836 837 840 843 845 846 847 847 847 849 850 850
802 779 764 779 794 802 809 812 814 812 809 813 817 820 810 802 796 790 789 791 795 797 802 806 809 811 816 820 822 826 829 831 835 839 839 841 844 845 845 845 847 848 848 849
786 762 765 779 793 795 817 789 794 808 820 835 812 847 818 804 802 796 787 790 792 796 798 802 806 809 813 816 821 825 827 830 832 834 838 839 840 843 844 844 846 847 849 849
785 772 773 785 780 781 789 781 798 813 830 831 834 841 817 801 802 788 784 783 786 790 794 798 802 803 807 814 817 822 826 829 832 834 835 837 840 842 842 843 845 846 847 849
773 757 760 766 760 766 766 798 820 825 837 849 828 835 819 810 782 776 776 774 779 783 788 792 796 803 807 811 814 818 824 828 831 833 835 836 837 839 841 843 843 845 845 848
778 773 759 752 769 774 784 815 861 858 855 843 822 835 801 778 769 759 769 770 771 775 782 788 794 800 804 809 813 817 821 826 829 831 833 835 836 838 839 840 843 844 846 848
807 811 765 751 763 784 794 801 824 848 864 839 823 836 797 775 763 761 768 769 768 773 778 784 789 797 802 806 810 815 820 823 827 828 831 833 834 838 839 842 844 844 846 848
814 804 757 753 750 759 775 799 781 821 823 834 827 804 787 784 785 780 780 779 785 785 785 788 790 793 799 803 806 813 819 825 827 830 830 835 836 839 839 844 847 847 845 846
780 799 764 753 747 753 765 767 800 815 829 830 823 808 807 800 798 792 792 793 796 797 797 795 795 797 803 806 809 814 819 824 830 832 836 838 840 840 842 845 846 848 847 846
775 788 778 761 767 772 773 784 795 801 816 831 836 820 789 797 797 800 802 804 805 806 809 812 810 800 804 809 814 816 822 826 828 833 839 841 842 843 844 846 844 845 846 846
770 793 798 781 759 757 754 764 784 814 811 823 821 820 796 797 799 801 804 804 805 807 811 816 826 809 810 808 810 808 819 827 832 836 840 841 842 845 848 848 846 846 847 848
765 793 812 793 779 763 771 767 780 797 805 821 821 818 799 802 803 803 801 802 803 800 803 806 820 823 815 815 817 822 827 832 836 838 841 843 845 848 849 852 851 849 850 849
763 798 797 814 794 785 785 779 770 786 809 814 810 806 800 802 804 808 805 806 812 813 804 811 825 827 821 818 821 825 828 833 836 837 841 844 845 846 849 851 850 850 849 850
767 790 782 789 787 784 790 788 780 779 786 790 787 799 792 797 801 807 810 812 814 814 815 817 823 825 825 826 826 831 832 835 838 839 841 845 846 848 848 851 851 853 851 850
774 793 786 800 788 784 794 788 784 783 790 793 792 797 787 800 802 809 811 812 812 811 816 821 825 828 829 830 830 829 830 834 838 842 843 844 845 847 849 850 850 849 849 848
778 791 799 811 798 792 812 800 794 787 788 793 797 795 797 804 808 808 809 807 807 811 814 818 821 824 827 829 829 828 832 837 839 840 842 844 843 845 846 847 847 844 844 845
785 795 809 813 805 832 806 787 791 791 789 790 791 794 794 799 804 807 808 810 812 813 816 820 821 823 825 829 831 833 835 837 838 840 841 842 843 844 844 844 842 844 843 841
782 795 816 819 836 814 797 791 787 793 794 785 789 794 795 800 804 807 808 808 813 816 816 817 819 822 825 828 831 833 835 836 838 838 840 841 842 841 841 841 841 839 837 834
786 793 800 820 817 831 802 781 777 782 809 778 781 785 788 798 810 806 797 806 809 815 815 816 820 825 828 830 832 833 835 836 836 837 838 839 840 840 840 838 835 834 832 829
807 810 815 817 814 805 785 779 779 815 809 777 780 785 793 801 797 792 796 804 809 812 815 818 822 823 825 827 830 831 833 833 833 835 836 836 836 836 834 832 831 829 827 825
804 812 816 822 816 807 776 780 794 786 776 775 780 785 791 792 794 796 797 803 807 811 816 819 820 823 826 828 829 830 831 831 832 833 833 832 832 831 830 828 827 825 823 821
804 799 808 806 807 787 779 775 771 774 777 777 779 782 785 792 794 796 799 802 806 811 814 818 821 823 825 827 828 828 827 828 830 830 830 829 828 827 826 824 822 820 817 816
790 793 797 794 787 780 775 773 771 771 774 777 780 783 786 789 793 798 800 803 805 810 813 817 820 822 824 825 825 824 825 826 826 826 826 825 825 823 821 820 818 816 813 810
790 788 795 795 785 780 775 775 775 775 776 779 783 784 787 791 795 797 800 802 805 809 812 815 817 819 821 822 821 821 822 822 822 822 822 821 820 818 815 814 812 810 807 805
783 784 793 793 776 776 779 776 777 779 780 781 782 785 787 789 793 796 799 800 803 807 811 814 816 817 818 819 819 818 818 818 818 817 817 816 814 812 810 807 804 802 799 796